Weather History for Fort Stockton, TX

Change the Weather History Date:

Wednesday, November 21, 2012

  Actual Average Record
Temperature  
Mean Temperature 64 °F -  
Max Temperature 75 °F 64 °F 84 °F (2003)
Min Temperature 53 °F 41 °F 34 °F (2008)
Degree Days  
Heating Degree Days 1    
Growing Degree Days 14 (Base 50)    
Moisture  
Dew Point 48 °F    
Average Humidity 58    
Maximum Humidity 83    
Minimum Humidity 33    
Precipitation  
Precipitation 0.00 in - - ()
Sea Level Pressure  
Sea Level Pressure 30.06 in    
Wind  
Wind Speed 8 mph (SSE)    
Max Wind Speed 15 mph    
Max Gust Speed 23 mph    
Visibility 10 miles    
Events      
Averages and records for this station are not official NWS values.
T = Trace of Precipitation, MM = Missing Value Source: NWS Daily Summary

Daily Weather History Graph

Daily Weather History Graph

Search for Another Location

Airport:

Trip Planner

Search our weather history database for the weather conditions in past years. The results will help you decide how hot, cold, wet, or windy it might be!

Date:

Astronomy

Nov. 21, 2012 Rise Set
Actual Time 7:23 AM CST 5:51 PM CST
Civil Twilight 6:58 AM CST 6:17 PM CST
Nautical Twilight 6:28 AM CST 6:46 PM CST
Astronomical Twilight 5:59 AM CST 7:15 PM CST
Moon 1:46 PM CST (11/21) 1:09 AM CST (11/21)
Length of Visible Light 11h 19m
Length of Day
10h 27m
First Quarter, 62% of the Moon is Illuminated
Nov 21
First Quarter
Nov 28
Full
Dec 6
Last Quarter
Dec 13
New
Dec 19
First Quarter

Hourly Weather History & Observations

Time (CST) Temp. Dew Point Humidity Pressure Visibility Wind Dir Wind Speed Gust Speed Precip Events Conditions
12:53 AM 57.0 °F 44.1 °F 62% 30.11 in 10.0 mi SSE 4.6 mph - N/A   Clear
1:53 AM 55.9 °F 46.0 °F 69% 30.10 in 10.0 mi ESE 3.5 mph - N/A   Clear
2:53 AM 54.0 °F 46.9 °F 77% 30.10 in 10.0 mi SE 4.6 mph - N/A   Clear
3:53 AM 54.0 °F 48.0 °F 80% 30.09 in 10.0 mi SSE 3.5 mph - N/A   Clear
4:53 AM 54.0 °F 48.0 °F 80% 30.09 in 10.0 mi Calm Calm - N/A   Clear
5:53 AM 53.1 °F 48.0 °F 83% 30.11 in 10.0 mi Calm Calm - N/A   Clear
6:53 AM 57.9 °F 50.0 °F 75% 30.11 in 10.0 mi SE 5.8 mph - N/A   Clear
7:53 AM 57.9 °F 50.0 °F 75% 30.11 in 10.0 mi SE 8.1 mph - N/A   Clear
8:53 AM 62.1 °F 52.0 °F 70% 30.14 in 10.0 mi SSE 9.2 mph - N/A   Clear
9:53 AM 69.1 °F 51.1 °F 53% 30.12 in 10.0 mi South 15.0 mph - N/A   Clear
10:53 AM 72.0 °F 48.0 °F 43% 30.12 in 10.0 mi SSE 15.0 mph 20.7 mph N/A   Clear
11:53 AM 73.0 °F 48.0 °F 41% 30.09 in 10.0 mi SSE 13.8 mph 20.7 mph N/A   Clear
12:53 PM 75.0 °F 46.0 °F 36% 30.05 in 10.0 mi SSE 13.8 mph 21.9 mph N/A   Clear
1:53 PM 75.0 °F 44.1 °F 33% 30.02 in 10.0 mi SSE 15.0 mph 21.9 mph N/A   Clear
2:53 PM 75.9 °F 46.0 °F 35% 30.00 in 10.0 mi SSE 13.8 mph 21.9 mph N/A   Clear
3:53 PM 73.9 °F 46.9 °F 38% 30.01 in 10.0 mi SSE 13.8 mph 23.0 mph N/A   Clear
4:53 PM 73.0 °F 46.9 °F 39% 30.02 in 10.0 mi SSE 13.8 mph 21.9 mph N/A   Clear
5:53 PM 71.1 °F 48.0 °F 44% 30.02 in 10.0 mi South 9.2 mph - N/A   Mostly Cloudy
6:53 PM 69.1 °F 48.0 °F 47% 30.01 in 10.0 mi SSE 8.1 mph - N/A   Scattered Clouds
7:53 PM 66.0 °F 51.1 °F 59% 30.01 in 10.0 mi SSE 12.7 mph - N/A   Clear
8:53 PM 64.0 °F 51.1 °F 63% 30.02 in 10.0 mi SSE 13.8 mph - N/A   Clear
9:53 PM 62.1 °F 50.0 °F 65% 30.04 in 10.0 mi South 12.7 mph - N/A   Clear
10:53 PM 62.1 °F 48.9 °F 62% 30.04 in 10.0 mi SSW 15.0 mph - N/A   Partly Cloudy
11:53 PM 61.0 °F 48.9 °F 64% 30.01 in 10.0 mi SSW 11.5 mph - N/A   Clear